Regional Weather Roundup
Issued by NWS

Home | Current Version | Previous Version | Graphics & Text | Print | Product List | Glossary On
Versions: 1 2 3 4 5 6 7 8 9 10 11 12 13 14 15 16 17 18 19 20 21 22 23 24 25 26 27 28 29 30 31 32 33 34 35 36 37 38 39 40 41 42 43 44 45 46 47 48 49 50
990
ASUS43 KFSD 290902
RWRSD

WEATHER ROUNDUP FOR SOUTH DAKOTA
NATIONAL WEATHER SERVICE SIOUX FALLS SD
400 AM CDT WED MAR 29 2017

NOTE: "FAIR" INDICATES FEW OR NO CLOUDS BELOW 12,000 FEET WITH NO
SIGNIFICANT WEATHER AND/OR OBSTRUCTIONS TO VISIBILITY.


SDZ001>005-009-010-012>017-291000-
NORTHWEST AND NORTH CENTRAL SOUTH DAKOTA

CITY           SKY/WX    TMP DP  RH WIND       PRES   REMARKS
BUFFALO          N/A     42  41  96 S7        30.04S
FAITH            N/A     42  42 100 MISG      30.12F
MOBRIDGE       CLOUDY    44  39  82 CALM      30.13S
$$

SDZ012>016-024>037-041>051-057-063-072>074-291000-
SOUTHWEST AND SOUTH CENTRAL SOUTH DAKOTA

CITY           SKY/WX    TMP DP  RH WIND       PRES   REMARKS
RAPID CTY ARPT CLOUDY    41  40  96 SE3       30.10F
PIERRE         CLOUDY    43  41  93 NW8       30.13F
CUSTER         CLOUDY    33  30  88 W5        30.07F WCI  29
ELLSWORTH AFB  CLOUDY    42  42 100 S5        30.09F
PHILIP         CLOUDY    42  41  96 CALM      30.13F
PINE RIDGE     CLOUDY    42  41  96 CALM      30.12F
SPEARFISH      FAIR      32  30  93 CALM      30.10S
WINNER         LGT RAIN  44  41  89 CALM      30.14F
$$

SDZ004>011-016>023-039-040-291000-
NORTHEAST SOUTH DAKOTA

CITY           SKY/WX    TMP DP  RH WIND       PRES   REMARKS
ABERDEEN       CLOUDY    38  32  79 NE3       30.16F
WATERTOWN      CLOUDY    38  35  89 N5        30.16S
BROOKINGS      CLOUDY    37  34  89 CALM      30.15R
SISSETON         N/A     37  34  89 NW3       30.16F
$$

SDZ017-020-022-023-036>040-048>070-291000-
SOUTHEAST SOUTH DAKOTA

CITY           SKY/WX    TMP DP  RH WIND       PRES   REMARKS
SIOUX FALLS    MOCLDY    40  37  89 CALM      30.15R
HURON          CLOUDY    43  39  86 S3        30.15R
CHAMBERLAIN    CLOUDY    47  43  88 CALM      30.14F
MITCHELL       CLOUDY    39  37  92 N5        30.15S
YANKTON        CLOUDY    45  39  81 NE6       30.12F
$$

ABBREVIATIONS USED IN REMARKS
   TC - TEMPERATURE IN CELSIUS
  WCI - WIND CHILL INDEX
   HX - HEAT INDEX
  VSB - VISIBILITY





USA.gov is the U.S. government's official web portal to all federal, state and local government web resources and services.